This is the latest recevied weather packets stored in our database for station/object KJ5SC. If no packets are shown the sender has not sent any weather packets the latest 10 day(s).
| Time | Temp. | Humidity | Pressure | Rain* | Wind** | Luminosity | Snow |
|---|---|---|---|---|---|---|---|
| 1787928832 | 28.33° C | 96% | 1020 hPa | 0 mm | - | 400 W/m² | - |
| 1787928531 | 28.33° C | 97% | 1020 hPa | 0 mm | - | 383 W/m² | - |
| 1787928230 | 28.33° C | 98% | 1019.9 hPa | 0 mm | - | 364 W/m² | - |
| 1787927928 | 27.78° C | 98% | 1019.7 hPa | 0 mm | - | 344 W/m² | - |
| 1787927623 | 27.78° C | 98% | 1019.8 hPa | 0 mm | - | 330 W/m² | - |
| 1787927318 | 27.22° C | 98% | 1020.1 hPa | 0 mm | - | 330 W/m² | - |
| 1787927015 | 27.22° C | 98% | 1020 hPa | 0 mm | - | 319 W/m² | - |
| 1787926714 | 27.22° C | 98% | 1019.7 hPa | 0 mm | - | 301 W/m² | - |
| 1787926413 | 27.22° C | 99% | 1019.5 hPa | 0 mm | - | 294 W/m² | - |
| 1787926108 | 26.67° C | 98% | 1019.5 hPa | 0 mm | - | 280 W/m² | - |
| 1787925807 | 26.67° C | 99% | 1019.5 hPa | 0 mm | - | 260 W/m² | - |
| 1787925506 | 26.11° C | 99% | 1019.5 hPa | 0 mm | - | 246 W/m² | - |
| 1787925201 | 26.11° C | 99% | 1019.5 hPa | 0 mm | - | 186 W/m² | - |
| 1787924900 | 26.11° C | 99% | 1019.5 hPa | 0 mm | - | 146 W/m² | - |
| 1787924595 | 25.56° C | 99% | 1019.5 hPa | 0 mm | - | 56 W/m² | - |
| 1787924290 | 25.56° C | 99% | 1019.5 hPa | 0 mm | - | 46 W/m² | - |
| 1787923986 | 25.56° C | 99% | 1019.5 hPa | 0 mm | - | 44 W/m² | - |
| 1787923685 | 25° C | 99% | 1019.7 hPa | 0 mm | - | 42 W/m² | - |
| 1787923380 | 25° C | 99% | 1019.6 hPa | 0 mm | - | 40 W/m² | - |
| 1787923075 | 25° C | 99% | 1019.5 hPa | 0 mm | - | 35 W/m² | - |
| 1787922770 | 24.44° C | 99% | 1019.6 hPa | 0 mm | - | 35 W/m² | - |
| 1787922469 | 24.44° C | 98% | 1019.5 hPa | 0 mm | - | 34 W/m² | - |
| 1787922168 | 24.44° C | 98% | 1019.5 hPa | 0 mm | - | 33 W/m² | - |
| 1787921867 | 24.44° C | 98% | 1019.4 hPa | 0 mm | - | 32 W/m² | - |
| 1787921562 | 24.44° C | 98% | 1019.6 hPa | 0 mm | - | 30 W/m² | - |
* Rain latest hour (hover to see other rain measurements)
** Current wind speed in m/s (hover to see current wind gust speed)